Total_Precipitation_Accumulation
0.00 0.00 0.00 0.00 0.00 0.00 0.00 0.00 0.00 0.00 0.00 0.00 0.00 0.00 0.00 0.00 0.00 0.00 0.00 0.00 0.00 0.00 0.00 0.00 0.00 0.00 0.00 0.00 0.00 0.00 0.00 0.00 0.00 0.00 0.00 0.00 0.00 0.00 0.00 0.00 0.00 0.00 0.00 0.00 0.00 0.00 0.00 0.00 0.00 0.00 0.00 0.00 0.00 0.00 0.00 0.00 0.00 0.00 0.00 0.00 0.00 0.00 0.00 0.00 0.00 0.00 0.00 0.00 0.00 0.00 0.00 0.00 0.00 0.00 0.00 0.00 0.00 0.00 0.00 0.00 0.00 0.00 0.00 0.00 0.00 0.00
0.00 0.00 0.00 0.00 0.00 0.00 0.00 0.00 0.00 0.00 0.00 0.00 0.00 0.00 0.00 0.00 0.00 0.00 0.00 0.00 0.00 0.00 0.00 0.00 0.00 0.00 0.00 0.00 0.00 0.00 0.00 0.00 0.00 0.00 0.00 0.00 0.00 0.00 0.00 0.00 0.00 0.00 0.00 0.00 0.00 0.00 0.00 0.00 0.00 0.00 0.00 0.00 0.00 0.00 0.00 0.00 0.00 0.00 0.00 0.00 0.00 0.00 0.00 0.00 0.00 0.00 0.00 0.00 0.00 0.00 0.00 0.00 0.00 0.00 0.00 0.00 0.00 0.00 0.00 0.00 0.00 0.00 0.00 0.00 0.00 0.00
0.00 0.00 0.00 0.00 0.00 0.00 0.00 0.00 0.00 0.00 0.00 0.00 0.00 0.00 0.00 0.00 0.00 0.00 0.00 0.00 0.00 0.00 0.00 0.00 0.00 0.00 0.00 0.00 0.00 0.00 0.00 0.00 0.00 0.00 0.00 0.00 0.00 0.00 0.00 0.00 0.00 0.00 0.00 0.00 0.00 0.00 0.00 0.00 0.00 0.00 0.00 0.00 0.00 0.00 0.00 0.00 0.00 0.00 0.00 0.00 0.00 0.00 0.00 0.00 0.00 0.00 0.00 0.00 0.00 0.00 0.00 0.00 0.00 0.00 0.00 0.00 0.00 0.00 0.00 0.00 0.00 0.00 0.00 0.00 0.00 0.00
0.00 0.00 0.00 0.00 0.00 0.00 0.00 0.00 0.00 0.00 0.00 0.00 0.00 0.00 0.00 0.00 0.00 0.00 0.00 0.00 0.00 0.00 0.00 0.00 0.00 0.00 0.00 0.00 0.00 0.00 0.00 0.00 0.00 0.00 0.00 0.00 0.00 0.00 0.00 0.00 0.00 0.00 0.00 0.00 0.00 0.00 0.00 0.00 0.00 0.00 0.00 0.00 0.00 0.00 0.00 0.00 0.00 0.00 0.00 0.00 0.00 0.00 0.00 0.00 0.00 0.00 0.00 0.00 0.00 0.00 0.00 0.00 0.00 0.00 0.00 0.00 0.00 0.00 0.00 0.00 0.00 0.00 0.00 0.00 0.00 0.00
0.01 0.01 0.00 0.00 0.00 0.00 0.00 0.00 0.00 0.00 0.00 0.00 0.00 0.00 0.00 0.00 0.00 0.00 0.00 0.00 0.00 0.00 0.00 0.00 0.00 0.00 0.00 0.00 0.00 0.00 0.00 0.00 0.00 0.00 0.00 0.00 0.00 0.00 0.00 0.00 0.00 0.00 0.00 0.00 0.00 0.00 0.00 0.00 0.00 0.00 0.00 0.00 0.00 0.00 0.00 0.00 0.00 0.00 0.00 0.00 0.00 0.00 0.00 0.00 0.00 0.00 0.00 0.00 0.00 0.00 0.00 0.00 0.00 0.00 0.00 0.00 0.00 0.00 0.00 0.00 0.00 0.00 0.00 0.00 0.00 0.00
0.00 0.00 0.00 0.00 0.00 0.00 0.00 0.00 0.00 0.00 0.00 0.00 0.00 0.00 0.00 0.00 0.00 0.00 0.00 0.00 0.00 0.00 0.00 0.00 0.00 0.00 0.00 0.00 0.00 0.00 0.00 0.00 0.00 0.00 0.00 0.00 0.00 0.00 0.00 0.00 0.00 0.00 0.00 0.00 0.00 0.00 0.00 0.00 0.00 0.00 0.00 0.00 0.00 0.00 0.00 0.00 0.00 0.00 0.00 0.00 0.00 0.00 0.00 0.00 0.00 0.00 0.00 0.00 0.00 0.00 0.00 0.00 0.00 0.00 0.00 0.00 0.00 0.00 0.00 0.00 0.00 0.00 0.00 0.00 0.00 0.00
0.00 0.00 0.00 0.00 0.00 0.00 0.00 0.00 0.00 0.00 0.00 0.00 0.00 0.00 0.00 0.00 0.00 0.00 0.00 0.00 0.00 0.00 0.00 0.00 0.00 0.00 0.00 0.00 0.00 0.00 0.00 0.00 0.00 0.00 0.00 0.00 0.00 0.00 0.00 0.00 0.00 0.00 0.00 0.00 0.00 0.00 0.00 0.00 0.00 0.00 0.00 0.00 0.00 0.00 0.00 0.00 0.00 0.00 0.00 0.00 0.00 0.00 0.00 0.00 0.00 0.00 0.00 0.00 0.00 0.00 0.00 0.00 0.00 0.00 0.00 0.00 0.00 0.00 0.00 0.00 0.00 0.00 0.00 0.00 0.00 0.00
0.00 0.00 0.00 0.00 0.00 0.00 0.00 0.00 0.00 0.00 0.00 0.00 0.00 0.00 0.00 0.00 0.00 0.00 0.00 0.00 0.00 0.00 0.00 0.00 0.00 0.00 0.00 0.00 0.00 0.00 0.00 0.00 0.00 0.00 0.00 0.00 0.00 0.00 0.00 0.00 0.00 0.00 0.00 0.00 0.00 0.00 0.00 0.00 0.00 0.00 0.00 0.00 0.00 0.00 0.00 0.00 0.00 0.00 0.00 0.00 0.00 0.00 0.00 0.00 0.00 0.00 0.00 0.00 0.00 0.00 0.00 0.00 0.00 0.00 0.00 0.00 0.00 0.00 0.00 0.00 0.00 0.00 0.00 0.00 0.00 0.00
0.00 0.00 0.00 0.00 0.00 0.00 0.00 0.00 0.00 0.00 0.00 0.00 0.00 0.00 0.00 0.00 0.00 0.00 0.00 0.00 0.00 0.00 0.00 0.00 0.01 0.00 0.00 0.00 0.00 0.00 0.00 0.00 0.00 0.00 0.00 0.00 0.00 0.00 0.00 0.00 0.00 0.00 0.00 0.00 0.00 0.00 0.00 0.00 0.00 0.00 0.00 0.00 0.00 0.00 0.00 0.00 0.00 0.00 0.00 0.00 0.00 0.00 0.00 0.00 0.00 0.00 0.00 0.00 0.00 0.00 0.00 0.00 0.00 0.00 0.00 0.00 0.00 0.00 0.00 0.00 0.00 0.00 0.00 0.00 0.00 0.00
0.00 0.00 0.00 0.00 0.00 0.00 0.00 0.00 0.00 0.00 0.00 0.00 0.00 0.00 0.00 0.00 0.00 0.00 0.00 0.00 0.00 0.00 0.00 0.00 0.02 0.00 0.00 0.00 0.00 0.00 0.00 0.00 0.00 0.00 0.00 0.00 0.00 0.00 0.00 0.00 0.00 0.00 0.00 0.00 0.00 0.00 0.00 0.00 0.00 0.00 0.00 0.00 0.00 0.00 0.00 0.00 0.00 0.00 0.00 0.00 0.00 0.00 0.00 0.00 0.00 0.00 0.00 0.00 0.00 0.00 0.00 0.00 0.00 0.00 0.00 0.00 0.00 0.00 0.00 0.00 0.00 0.00 0.00 0.00 0.00 0.00
0.00 0.00 0.00 0.00 0.00 0.00 0.00 0.00 0.00 0.00 0.00 0.00 0.00 0.00 0.00 0.00 0.00 0.00 0.00 0.00 0.00 0.00 0.00 0.00 0.00 0.00 0.00 0.00 0.00 0.00 0.00 0.00 0.00 0.00 0.00 0.00 0.00 0.00 0.00 0.00 0.00 0.00 0.00 0.00 0.00 0.00 0.00 0.00 0.00 0.00 0.00 0.00 0.00 0.00 0.00 0.00 0.00 0.00 0.00 0.00 0.00 0.00 0.00 0.00 0.00 0.00 0.00 0.00 0.00 0.00 0.00 0.00 0.00 0.00 0.00 0.00 0.00 0.00 0.00 0.00 0.00 0.00 0.00 0.00 0.00 0.00
0.00 0.00 0.00 0.00 0.00 0.00 0.00 0.00 0.00 0.00 0.00 0.00 0.00 0.00 0.00 0.01 0.01 0.01 0.03 0.01 0.00 0.00 0.00 0.01 0.00 0.09 0.00 0.00 0.00 0.00 0.00 0.00 0.00 0.00 0.00 0.00 0.00 0.00 0.00 0.00 0.00 0.00 0.00 0.00 0.00 0.00 0.00 0.00 0.00 0.00 0.00 0.00 0.00 0.00 0.00 0.00 0.00 0.00 0.00 0.00 0.00 0.00 0.00 0.00 0.00 0.00 0.00 0.00 0.00 0.00 0.00 0.00 0.00 0.00 0.00 0.00 0.00 0.00 0.00 0.00 0.00 0.00 0.00 0.00 0.00 0.00
0.00 0.00 0.00 0.00 0.00 0.00 0.00 0.00 0.00 0.00 0.00 0.00 0.00 0.00 0.00 0.02 0.00 0.01 0.01 0.02 0.02 0.00 0.02 0.00 0.03 0.00 0.00 0.00 0.00 0.00 0.00 0.00 0.00 0.00 0.00 0.00 0.00 0.00 0.00 0.00 0.00 0.00 0.00 0.00 0.00 0.00 0.00 0.00 0.00 0.00 0.00 0.00 0.00 0.00 0.00 0.00 0.00 0.00 0.00 0.00 0.00 0.00 0.00 0.00 0.00 0.00 0.00 0.00 0.00 0.00 0.00 0.00 0.00 0.00 0.00 0.00 0.00 0.00 0.00 0.00 0.00 0.00 0.00 0.00 0.00 0.00
0.00 0.00 0.00 0.00 0.00 0.00 0.00 0.00 0.03 0.00 0.00 0.00 0.00 0.01 0.00 0.00 0.00 0.00 0.01 0.01 0.01 0.01 0.03 0.01 0.04 0.01 0.00 0.00 0.00 0.00 0.00 0.00 0.00 0.00 0.00 0.00 0.00 0.00 0.00 0.00 0.00 0.00 0.00 0.00 0.00 0.00 0.00 0.00 0.00 0.00 0.00 0.00 0.03 0.00 0.00 0.00 0.00 0.00 0.00 0.00 0.00 0.00 0.00 0.00 0.00 0.00 0.00 0.00 0.00 0.00 0.00 0.00 0.00 0.00 0.00 0.00 0.00 0.00 0.00 0.00 0.00 0.00 0.00 0.00 0.00 0.00
0.00 0.02 0.00 0.00 0.02 0.00 0.00 0.00 0.00 0.00 0.02 0.00 0.00 0.00 0.09 0.01 0.01 0.00 0.02 0.01 0.01 0.04 0.02 0.01 0.00 0.00 0.00 0.01 0.00 0.00 0.00 0.00 0.00 0.00 0.00 0.00 0.00 0.00 0.00 0.00 0.00 0.00 0.00 0.00 0.00 0.00 0.00 0.00 0.00 0.00 0.00 0.00 0.00 0.00 0.00 0.00 0.00 0.00 0.00 0.00 0.00 0.00 0.00 0.00 0.00 0.00 0.00 0.00 0.00 0.00 0.00 0.00 0.00 0.00 0.00 0.00 0.00 0.00 0.00 0.00 0.00 0.00 0.00 0.00 0.00 0.00
0.00 0.00 0.01 0.00 0.00 0.00 0.00 0.00 0.00 0.00 0.00 0.00 0.00 0.00 0.00 0.00 0.02 0.03 0.02 0.00 0.00 0.02 0.01 0.01 0.00 0.00 0.00 0.01 0.00 0.00 0.00 0.00 0.00 0.00 0.00 0.00 0.00 0.00 0.00 0.00 0.00 0.00 0.00 0.00 0.00 0.00 0.00 0.00 0.00 0.00 0.00 0.00 0.00 0.00 0.00 0.00 0.00 0.00 0.00 0.00 0.00 0.00 0.00 0.00 0.00 0.00 0.00 0.00 0.00 0.00 0.00 0.00 0.00 0.01 0.00 0.00 0.00 0.00 0.00 0.00 0.00 0.00 0.00 0.00 0.00 0.00
0.00 0.00 0.00 0.00 0.00 0.00 0.00 0.00 0.01 0.00 0.05 0.09 0.00 0.03 0.00 0.03 0.00 0.02 0.00 0.00 0.00 0.00 0.00 0.00 0.02 0.00 0.00 0.00 0.00 0.00 0.00 0.00 0.00 0.00 0.00 0.00 0.00 0.00 0.00 0.00 0.00 0.00 0.00 0.00 0.00 0.00 0.00 0.00 0.00 0.00 0.00 0.00 0.00 0.00 0.00 0.00 0.00 0.00 0.00 0.00 0.00 0.00 0.00 0.00 0.00 0.00 0.00 0.00 0.00 0.00 0.00 0.00 0.00 0.00 0.00 0.00 0.00 0.00 0.00 0.00 0.00 0.00 0.00 0.00 0.00 0.00
0.04 0.00 0.01 0.00 0.01 0.00 0.00 0.00 0.00 0.00 0.00 0.01 0.01 0.05 0.00 0.00 0.01 0.02 0.02 0.02 0.03 0.01 0.00 0.00 0.00 0.00 0.00 0.00 0.00 0.00 0.00 0.00 0.00 0.00 0.00 0.00 0.00 0.00 0.00 0.00 0.00 0.00 0.00 0.00 0.00 0.00 0.00 0.00 0.00 0.00 0.00 0.00 0.00 0.00 0.00 0.00 0.00 0.00 0.00 0.00 0.00 0.00 0.00 0.00 0.00 0.00 0.00 0.00 0.00 0.00 0.00 0.00 0.00 0.00 0.00 0.00 0.00 0.00 0.00 0.00 0.00 0.00 0.00 0.00 0.00 0.00
0.00 0.00 0.02 0.00 0.00 0.01 0.00 0.00 0.00 0.00 0.00 0.01 0.01 0.02 0.02 0.06 0.06 0.05 0.01 0.01 0.00 0.00 0.01 0.00 0.01 0.00 0.01 0.00 0.00 0.00 0.00 0.00 0.01 0.00 0.00 0.00 0.00 0.00 0.00 0.00 0.00 0.00 0.00 0.00 0.00 0.00 0.00 0.00 0.00 0.00 0.00 0.00 0.00 0.00 0.00 0.00 0.00 0.00 0.00 0.00 0.00 0.00 0.00 0.00 0.00 0.00 0.00 0.00 0.00 0.00 0.00 0.00 0.00 0.00 0.00 0.00 0.00 0.00 0.00 0.00 0.00 0.00 0.00 0.00 0.00 0.01
0.00 0.01 0.00 0.00 0.00 0.01 0.00 0.00 0.01 0.02 0.00 0.00 0.00 0.00 0.02 0.01 0.01 0.04 0.05 0.13 0.01 0.01 0.00 0.00 0.01 0.04 0.01 0.00 0.00 0.02 0.00 0.00 0.00 0.00 0.00 0.00 0.00 0.00 0.00 0.00 0.00 0.00 0.00 0.00 0.00 0.00 0.00 0.00 0.00 0.00 0.00 0.00 0.00 0.00 0.00 0.00 0.00 0.00 0.00 0.00 0.00 0.00 0.00 0.00 0.00 0.00 0.00 0.00 0.00 0.00 0.00 0.00 0.00 0.00 0.00 0.00 0.00 0.00 0.00 0.00 0.00 0.00 0.00 0.00 0.00 0.00
0.00 0.00 0.00 0.00 0.00 0.00 0.00 0.01 0.01 0.08 0.07 0.06 0.01 0.00 0.01 0.01 0.01 0.01 0.02 0.03 0.04 0.11 0.04 0.05 0.03 0.02 0.00 0.02 0.00 0.01 0.00 0.00 0.00 0.00 0.00 0.00 0.00 0.00 0.00 0.00 0.00 0.00 0.00 0.00 0.00 0.00 0.00 0.00 0.00 0.00 0.00 0.00 0.00 0.00 0.00 0.00 0.00 0.00 0.00 0.00 0.00 0.00 0.00 0.00 0.00 0.00 0.00 0.00 0.00 0.00 0.00 0.00 0.00 0.00 0.00 0.00 0.00 0.00 0.00 0.00 0.00 0.00 0.00 0.00 0.00 0.00
0.00 0.00 0.00 0.00 0.00 0.01 0.00 0.00 0.00 0.00 0.04 0.02 0.06 0.03 0.02 0.12 0.16 0.17 0.15 0.02 0.03 0.09 0.06 0.03 0.02 0.03 0.01 0.00 0.01 0.01 0.00 0.00 0.00 0.00 0.00 0.00 0.00 0.00 0.00 0.00 0.00 0.01 0.00 0.00 0.00 0.00 0.00 0.00 0.00 0.00 0.00 0.01 0.02 0.00 0.01 0.02 0.01 0.01 0.02 0.01 0.00 0.00 0.00 0.01 0.00 0.00 0.01 0.00 0.00 0.00 0.00 0.00 0.00 0.00 0.00 0.00 0.00 0.00 0.00 0.00 0.00 0.00 0.00 0.00 0.00 0.00
0.00 0.05 0.00 0.00 0.00 0.01 0.00 0.03 0.00 0.00 0.00 0.02 0.01 0.01 0.01 0.05 0.09 0.10 0.16 0.04 0.06 0.09 0.08 0.09 0.14 0.01 0.00 0.00 0.00 0.01 0.01 0.00 0.01 0.00 0.01 0.01 0.01 0.00 0.00 0.00 0.01 0.00 0.00 0.00 0.00 0.00 0.00 0.00 0.00 0.00 0.00 0.00 0.00 0.00 0.00 0.02 0.00 0.00 0.01 0.01 0.01 0.01 0.02 0.00 0.03 0.04 0.01 0.00 0.01 0.00 0.00 0.00 0.00 0.00 0.00 0.00 0.00 0.00 0.00 0.00 0.00 0.00 0.01 0.00 0.00 0.00
0.00 0.00 0.01 0.00 0.00 0.00 0.00 0.00 0.00 0.00 0.00 0.01 0.01 0.01 0.06 0.04 0.03 0.12 0.15 0.13 0.07 0.04 0.06 0.02 0.07 0.00 0.00 0.00 0.00 0.00 0.00 0.00 0.00 0.00 0.01 0.00 0.00 0.00 0.00 0.00 0.00 0.00 0.00 0.00 0.00 0.00 0.00 0.00 0.00 0.00 0.00 0.00 0.00 0.00 0.00 0.01 0.00 0.00 0.00 0.01 0.00 0.00 0.00 0.01 0.02 0.02 0.03 0.04 0.03 0.00 0.00 0.00 0.00 0.00 0.00 0.01 0.00 0.00 0.00 0.00 0.00 0.01 0.01 0.00 0.00 0.00
0.02 0.19 0.05 0.02 0.00 0.00 0.00 0.00 0.00 0.00 0.02 0.08 0.06 0.06 0.06 0.02 0.03 0.02 0.03 0.06 0.21 0.04 0.02 0.13 0.12 0.00 0.00 0.00 0.00 0.03 0.01 0.00 0.01 0.01 0.01 0.01 0.02 0.02 0.01 0.01 0.00 0.00 0.00 0.00 0.00 0.00 0.00 0.00 0.00 0.00 0.00 0.00 0.00 0.02 0.00 0.00 0.00 0.00 0.00 0.00 0.02 0.07 0.03 0.03 0.04 0.02 0.02 0.01 0.00 0.01 0.00 0.00 0.00 0.00 0.00 0.01 0.01 0.00 0.01 0.01 0.01 0.01 0.01 0.01 0.01 0.00
0.02 0.05 0.02 0.05 0.11 0.01 0.00 0.00 0.01 0.05 0.03 0.02 0.01 0.02 0.01 0.01 0.01 0.04 0.09 0.03 0.15 0.07 0.01 0.18 0.11 0.00 0.00 0.00 0.01 0.02 0.00 0.00 0.00 0.00 0.00 0.00 0.01 0.02 0.02 0.01 0.00 0.03 0.01 0.01 0.00 0.00 0.00 0.00 0.00 0.01 0.00 0.01 0.00 0.00 0.00 0.01 0.01 0.06 0.06 0.06 0.01 0.01 0.03 0.01 0.05 0.02 0.00 0.01 0.01 0.01 0.02 0.00 0.00 0.00 0.00 0.01 0.01 0.01 0.01 0.01 0.01 0.01 0.01 0.01 0.01 0.00
0.16 0.02 0.04 0.05 0.05 0.10 0.02 0.01 0.02 0.02 0.03 0.08 0.01 0.02 0.02 0.02 0.12 0.15 0.17 0.22 0.12 0.01 0.10 0.07 0.09 0.01 0.00 0.01 0.01 0.04 0.02 0.01 0.00 0.00 0.01 0.02 0.01 0.01 0.01 0.02 0.02 0.01 0.02 0.00 0.02 0.01 0.01 0.01 0.00 0.01 0.01 0.02 0.02 0.00 0.00 0.00 0.00 0.00 0.00 0.01 0.02 0.01 0.01 0.05 0.01 0.00 0.00 0.00 0.00 0.01 0.02 0.05 0.06 0.02 0.01 0.01 0.01 0.01 0.01 0.01 0.02 0.02 0.14 0.50 0.45 0.34
0.01 0.01 0.03 0.06 0.05 0.03 0.01 0.01 0.00 0.01 0.10 0.03 0.02 0.00 0.03 0.02 0.04 0.07 0.08 0.13 0.03 0.16 0.24 0.02 0.00 0.01 0.01 0.02 0.03 0.03 0.06 0.03 0.04 0.02 0.02 0.01 0.03 0.02 0.03 0.02 0.00 0.01 0.01 0.01 0.02 0.01 0.01 0.00 0.01 0.00 0.01 0.02 0.01 0.00 0.03 0.00 0.01 0.02 0.01 0.02 0.01 0.01 0.03 0.00 0.00 0.00 0.00 0.00 0.00 0.00 0.00 0.00 0.06 0.05 0.03 0.01 0.01 0.06 0.06 0.02 0.12 0.39 0.74 0.46 0.27 0.23
0.17 0.03 0.00 0.02 0.02 0.04 0.11 0.06 0.03 0.05 0.07 0.07 0.06 0.06 0.03 0.02 0.12 0.15 0.09 0.09 0.04 0.12 0.06 0.02 0.01 0.04 0.00 0.00 0.00 0.00 0.02 0.05 0.08 0.05 0.06 0.01 0.02 0.02 0.05 0.03 0.02 0.04 0.04 0.04 0.04 0.05 0.02 0.08 0.02 0.04 0.01 0.02 0.03 0.01 0.04 0.02 0.02 0.00 0.00 0.00 0.00 0.01 0.00 0.00 0.00 0.00 0.00 0.00 0.00 0.00 0.00 0.01 0.01 0.02 0.02 0.01 0.03 0.01 0.29 0.61 0.44 0.35 0.37 0.28 0.25 0.13
0.01 0.00 0.00 0.01 0.03 0.01 0.01 0.02 0.02 0.05 0.04 0.06 0.03 0.02 0.05 0.07 0.19 0.10 0.10 0.02 0.04 0.07 0.03 0.01 0.00 0.00 0.00 0.00 0.00 0.00 0.02 0.01 0.03 0.07 0.06 0.04 0.02 0.02 0.04 0.03 0.04 0.03 0.04 0.06 0.05 0.03 0.04 0.02 0.05 0.02 0.01 0.03 0.01 0.01 0.02 0.04 0.03 0.01 0.00 0.00 0.01 0.00 0.01 0.00 0.01 0.01 0.00 0.02 0.01 0.03 0.06 0.32 0.27 0.51 0.63 0.22 0.32 0.23 0.29 0.17 0.29 0.33 0.24 0.18 0.18 0.07
0.00 0.01 0.00 0.01 0.01 0.00 0.00 0.00 0.02 0.01 0.02 0.05 0.04 0.03 0.08 0.12 0.09 0.03 0.02 0.00 0.06 0.09 0.02 0.00 0.00 0.00 0.00 0.00 0.00 0.00 0.01 0.00 0.00 0.00 0.01 0.01 0.05 0.05 0.04 0.03 0.05 0.04 0.05 0.10 0.12 0.10 0.07 0.07 0.08 0.06 0.07 0.10 0.07 0.05 0.03 0.02 0.01 0.00 0.00 0.00 0.03 0.01 0.00 0.00 0.01 0.06 0.15 0.19 0.27 0.33 0.37 0.59 0.53 0.28 0.33 0.11 0.36 0.28 0.41 0.46 0.27 0.16 0.12 0.13 0.03 0.11
0.01 0.01 0.01 0.02 0.04 0.00 0.00 0.00 0.02 0.01 0.02 0.02 0.02 0.02 0.02 0.01 0.01 0.01 0.02 0.00 0.01 0.00 0.01 0.05 0.02 0.02 0.00 0.00 0.00 0.00 0.00 0.00 0.01 0.01 0.00 0.00 0.01 0.00 0.00 0.01 0.00 0.01 0.02 0.02 0.01 0.04 0.04 0.03 0.06 0.13 0.08 0.09 0.07 0.06 0.05 0.03 0.05 0.02 0.03 0.02 0.05 0.06 0.15 0.19 0.31 0.45 0.50 0.51 0.56 0.50 0.46 0.39 0.42 0.28 0.33 0.26 0.19 0.25 0.17 0.14 0.12 0.11 0.12 0.11 0.15 0.06
0.00 0.00 0.00 0.01 0.04 0.00 0.00 0.01 0.02 0.00 0.03 0.04 0.01 0.01 0.01 0.00 0.01 0.06 0.09 0.04 0.02 0.02 0.01 0.02 0.01 0.00 0.00 0.00 0.00 0.00 0.00 0.01 0.00 0.00 0.01 0.01 0.00 0.01 0.01 0.00 0.02 0.03 0.03 0.01 0.04 0.04 0.03 0.04 0.05 0.05 0.07 0.07 0.16 0.08 0.04 0.05 0.05 0.02 0.03 0.06 0.07 0.06 0.06 0.10 0.15 0.22 0.39 0.37 0.36 0.33 0.31 0.40 0.31 0.28 0.26 0.14 0.15 0.06 0.53 0.52 0.23 0.23 0.11 0.06 0.09 0.05
0.00 0.00 0.00 0.03 0.09 0.00 0.00 0.00 0.04 0.08 0.07 0.01 0.00 0.00 0.02 0.03 0.04 0.04 0.02 0.01 0.01 0.03 0.01 0.00 0.00 0.00 0.00 0.01 0.01 0.00 0.00 0.00 0.01 0.01 0.03 0.04 0.06 0.04 0.04 0.01 0.01 0.02 0.03 0.01 0.04 0.06 0.05 0.01 0.03 0.03 0.01 0.04 0.03 0.14 0.19 0.10 0.13 0.04 0.05 0.03 0.03 0.03 0.04 0.03 0.06 0.05 0.06 0.09 0.15 0.19 0.16 0.11 0.20 0.16 0.18 0.31 0.30 0.31 0.24 0.15 0.14 0.12 0.05 0.04 0.06 0.05
0.00 0.00 0.01 0.01 0.06 0.01 0.00 0.02 0.09 0.05 0.01 0.00 0.00 0.01 0.01 0.01 0.00 0.01 0.02 0.02 0.02 0.03 0.04 0.03 0.04 0.02 0.01 0.04 0.03 0.04 0.04 0.05 0.06 0.04 0.04 0.00 0.01 0.07 0.03 0.02 0.03 0.06 0.03 0.04 0.01 0.04 0.05 0.03 0.03 0.04 0.01 0.03 0.02 0.02 0.05 0.07 0.11 0.12 0.06 0.09 0.05 0.04 0.05 0.05 0.12 0.08 0.05 0.03 0.04 0.07 0.08 0.09 0.05 0.17 0.34 0.48 0.51 0.45 0.19 0.11 0.10 0.12 0.09 0.06 0.11 0.08
0.00 0.00 0.02 0.06 0.03 0.05 0.07 0.13 0.07 0.02 0.00 0.01 0.00 0.00 0.01 0.00 0.01 0.04 0.04 0.03 0.01 0.03 0.01 0.02 0.03 0.01 0.03 0.03 0.05 0.05 0.18 0.09 0.05 0.01 0.05 0.04 0.01 0.05 0.10 0.02 0.02 0.02 0.07 0.05 0.07 0.03 0.09 0.03 0.05 0.02 0.04 0.01 0.02 0.00 0.03 0.05 0.06 0.04 0.06 0.03 0.06 0.03 0.04 0.04 0.08 0.09 0.08 0.05 0.04 0.03 0.10 0.32 0.24 0.10 0.26 0.23 0.14 0.20 0.21 0.12 0.04 0.22 0.13 0.27 0.12 0.14
0.00 0.01 0.02 0.04 0.06 0.07 0.03 0.07 0.07 0.04 0.01 0.00 0.00 0.00 0.00 0.00 0.03 0.02 0.02 0.00 0.00 0.01 0.00 0.01 0.02 0.04 0.05 0.06 0.09 0.07 0.13 0.06 0.03 0.02 0.01 0.03 0.04 0.02 0.03 0.07 0.15 0.12 0.03 0.05 0.05 0.05 0.06 0.06 0.06 0.05 0.03 0.06 0.04 0.05 0.04 0.03 0.01 0.01 0.01 0.03 0.05 0.03 0.03 0.05 0.12 0.08 0.11 0.33 0.27 0.16 0.17 0.08 0.25 0.27 0.11 0.08 0.04 0.04 0.01 0.02 0.01 0.02 0.02 0.02 0.01 0.01
0.03 0.01 0.06 0.14 0.14 0.06 0.11 0.11 0.09 0.10 0.13 0.00 0.05 0.03 0.03 0.05 0.05 0.04 0.02 0.01 0.00 0.03 0.07 0.05 0.03 0.04 0.04 0.08 0.08 0.05 0.14 0.09 0.03 0.03 0.01 0.02 0.03 0.02 0.03 0.05 0.04 0.02 0.06 0.04 0.07 0.06 0.07 0.08 0.07 0.05 0.05 0.07 0.08 0.03 0.03 0.09 0.09 0.07 0.02 0.03 0.03 0.04 0.04 0.04 0.08 0.12 0.11 0.07 0.07 0.23 0.10 0.22 0.11 0.23 0.12 0.11 0.06 0.03 0.04 0.02 0.05 0.04 0.02 0.02 0.01 0.02
0.04 0.06 0.20 0.34 0.12 0.12 0.21 0.13 0.08 0.08 0.03 0.00 0.02 0.11 0.06 0.17 0.10 0.05 0.09 0.03 0.07 0.04 0.09 0.08 0.04 0.04 0.08 0.04 0.05 0.06 0.10 0.07 0.04 0.05 0.08 0.16 0.06 0.05 0.10 0.13 0.12 0.13 0.12 0.13 0.15 0.13 0.11 0.09 0.03 0.00 0.02 0.01 0.05 0.04 0.01 0.01 0.02 0.08 0.15 0.09 0.07 0.09 0.08 0.13 0.21 0.15 0.13 0.12 0.28 0.32 0.16 0.06 0.17 0.19 0.42 0.36 0.21 0.09 0.08 0.04 0.07 0.06 0.02 0.03 0.04 0.06
0.10 0.10 0.12 0.09 0.06 0.07 0.18 0.17 0.15 0.03 0.03 0.08 0.04 0.11 0.17 0.36 0.33 0.21 0.33 0.08 0.19 0.01 0.05 0.09 0.05 0.06 0.07 0.03 0.05 0.04 0.07 0.06 0.08 0.21 0.05 0.20 0.14 0.08 0.10 0.03 0.07 0.09 0.10 0.05 0.16 0.26 0.29 0.26 0.26 0.27 0.16 0.03 0.06 0.04 0.05 0.11 0.09 0.19 0.12 0.16 0.15 0.13 0.10 0.11 0.10 0.11 0.23 0.20 0.29 0.05 0.22 0.14 0.14 0.18 0.12 0.22 0.08 0.21 0.38 0.43 0.26 0.21 0.18 0.12 0.12 0.07
0.06 0.05 0.04 0.05 0.10 0.15 0.15 0.11 0.06 0.05 0.02 0.02 0.04 0.13 0.15 0.15 0.15 0.25 0.17 0.09 0.02 0.10 0.10 0.10 0.08 0.10 0.08 0.10 0.04 0.05 0.03 0.20 0.11 0.04 0.12 0.13 0.21 0.15 0.10 0.05 0.21 0.16 0.08 0.08 0.26 0.18 0.08 0.14 0.15 0.14 0.11 0.16 0.13 0.12 0.12 0.12 0.11 0.12 0.04 0.07 0.08 0.22 0.28 0.40 0.22 0.32 0.32 0.10 0.10 0.18 0.27 0.22 0.22 0.18 0.08 0.10 0.14 0.07 0.10 0.20 0.37 0.44 0.33 0.53 0.42 0.29
0.05 0.02 0.04 0.06 0.09 0.06 0.18 0.30 0.16 0.16 0.16 0.20 0.45 0.14 0.20 0.03 0.11 0.15 0.07 0.04 0.03 0.03 0.21 0.09 0.15 0.10 0.03 0.02 0.04 0.15 0.12 0.11 0.03 0.05 0.05 0.10 0.13 0.15 0.13 0.14 0.21 0.14 0.22 0.24 0.18 0.07 0.11 0.10 0.17 0.19 0.12 0.15 0.19 0.15 0.09 0.10 0.10 0.15 0.07 0.10 0.16 0.22 0.15 0.32 0.39 0.24 0.15 0.21 0.12 0.23 0.19 0.13 0.32 0.34 0.19 0.17 0.13 0.08 0.09 0.09 0.09 0.09 0.07 0.11 0.18 0.14
0.05 0.06 0.03 0.08 0.03 0.04 0.03 0.09 0.12 0.14 1.08 0.02 0.16 0.03 0.25 0.18 0.19 0.18 0.03 0.01 0.01 0.04 0.05 0.08 0.05 0.11 0.09 0.04 0.01 0.09 0.07 0.09 0.12 0.07 0.08 0.07 0.19 0.22 0.09 0.11 0.10 0.26 0.27 0.15 0.21 0.30 0.30 0.17 0.14 0.16 0.29 0.27 0.19 0.18 0.26 0.08 0.11 0.08 0.14 0.30 0.47 0.23 0.27 0.28 0.42 0.27 0.19 0.43 0.35 0.22 0.11 0.16 0.14 0.12 0.12 0.09 0.08 0.13 0.24 0.21 0.05 0.05 0.04 0.05 0.07 0.08
0.09 0.06 0.05 0.12 0.05 0.17 0.20 0.17 0.16 0.14 0.29 0.11 0.10 0.09 0.13 0.09 0.03 0.02 0.01 0.02 0.01 0.01 0.08 0.27 0.53 0.39 0.59 0.25 0.35 0.12 0.06 0.18 0.10 0.17 0.13 0.17 0.19 0.17 0.13 0.13 0.15 0.18 0.19 0.20 0.23 0.23 0.32 0.24 0.28 0.22 0.32 0.52 0.30 0.31 0.31 0.29 0.21 0.28 0.30 0.33 0.21 0.30 0.36 0.42 0.39 0.39 0.22 0.14 0.25 0.21 0.10 0.05 0.05 0.03 0.07 0.10 0.08 0.15 0.27 0.12 0.18 0.14 0.04 0.06 0.09 0.13
0.32 0.05 0.17 0.18 0.10 0.13 0.17 0.12 0.04 0.04 0.05 0.07 0.04 0.06 0.07 0.07 0.06 0.03 0.02 0.18 0.42 0.42 0.36 0.05 0.23 0.48 0.22 0.20 0.20 0.16 0.19 0.10 0.19 0.13 0.26 0.29 0.35 0.31 0.25 0.37 0.24 0.22 0.10 0.09 0.28 0.19 0.30 0.24 0.18 0.12 0.18 0.26 0.38 0.29 0.27 0.34 0.25 0.17 0.28 0.20 0.19 0.19 0.34 0.33 0.33 0.36 0.33 0.25 0.15 0.08 0.06 0.03 0.04 0.04 0.07 0.07 0.10 0.13 0.13 0.09 0.06 0.09 0.13 0.12 0.14 0.18
0.04 0.02 0.08 0.19 0.08 0.03 0.04 0.02 0.01 0.01 0.01 0.01 0.01 0.01 0.05 0.07 0.12 0.20 0.12 0.18 0.33 0.50 0.29 0.23 0.19 0.27 0.09 0.04 0.08 0.12 0.10 0.17 0.21 0.22 0.30 0.36 0.36 0.37 0.37 0.31 0.20 0.18 0.17 0.17 0.19 0.16 0.23 0.17 0.16 0.20 0.18 0.08 0.16 0.28 0.30 0.34 0.25 0.31 0.33 0.38 0.38 0.22 0.30 0.29 0.22 0.25 0.12 0.07 0.08 0.05 0.03 0.03 0.03 0.03 0.05 0.07 0.10 0.14 0.14 0.06 0.05 0.05 0.04 0.06 0.11 0.11
0.02 0.10 0.09 0.15 0.05 0.09 0.06 0.00 0.02 0.12 0.06 0.04 0.05 0.02 0.02 0.03 0.10 0.24 0.18 0.21 0.31 0.30 0.35 0.15 0.12 0.28 0.37 0.33 0.17 0.06 0.08 0.16 0.20 0.27 0.25 0.26 0.25 0.20 0.21 0.16 0.15 0.11 0.09 0.11 0.14 0.12 0.11 0.07 0.08 0.23 0.34 0.14 0.12 0.25 0.37 0.33 0.23 0.16 0.24 0.30 0.30 0.23 0.21 0.26 0.25 0.33 0.24 0.14 0.16 0.16 0.07 0.07 0.06 0.09 0.07 0.06 0.09 0.11 0.12 0.11 0.04 0.12 0.10 0.06 0.08 0.10
0.09 0.45 0.13 0.08 0.07 0.06 0.02 0.01 0.02 0.01 0.00 0.01 0.01 0.03 0.05 0.13 0.19 0.11 0.12 0.09 0.15 0.56 0.39 0.24 0.20 0.43 0.54 0.23 0.18 0.12 0.17 0.28 0.27 0.30 0.35 0.23 0.17 0.13 0.09 0.11 0.10 0.08 0.08 0.09 0.13 0.22 0.19 0.17 0.21 0.33 0.32 0.14 0.19 0.36 0.36 0.28 0.24 0.17 0.17 0.20 0.31 0.25 0.24 0.27 0.30 0.27 0.22 0.18 0.14 0.12 0.10 0.12 0.07 0.06 0.03 0.05 0.09 0.14 0.15 0.11 0.07 0.11 0.17 0.20 0.19 0.17
0.10 0.13 0.04 0.04 0.08 0.01 0.01 0.00 0.01 0.01 0.01 0.01 0.01 0.07 0.09 0.07 0.16 0.12 0.14 0.17 0.31 0.19 0.14 0.16 0.23 0.23 0.24 0.21 0.22 0.18 0.23 0.29 0.07 0.03 0.04 0.03 0.04 0.05 0.06 0.06 0.07 0.09 0.16 0.38 0.10 0.12 0.11 0.13 0.17 0.22 0.14 0.11 0.20 0.43 0.25 0.30 0.21 0.16 0.12 0.16 0.18 0.16 0.19 0.20 0.20 0.22 0.20 0.20 0.17 0.10 0.05 0.03 0.03 0.03 0.03 0.04 0.09 0.12 0.18 0.21 0.12 0.11 0.15 0.27 0.31 0.28
0.04 0.04 0.05 0.13 0.09 0.05 0.02 0.07 0.12 0.08 0.05 0.08 0.12 0.15 0.11 0.17 0.19 0.22 0.21 0.22 0.25 0.38 0.19 0.28 0.52 0.35 0.28 0.28 0.41 0.21 0.18 0.19 0.08 0.04 0.03 0.00 0.01 0.01 0.01 0.03 0.02 0.03 0.04 0.13 0.08 0.14 0.10 0.09 0.15 0.18 0.12 0.12 0.18 0.34 0.22 0.37 0.18 0.16 0.12 0.11 0.12 0.16 0.33 0.17 0.20 0.21 0.17 0.15 0.13 0.12 0.09 0.05 0.02 0.00 0.00 0.01 0.06 0.11 0.13 0.15 0.13 0.10 0.16 0.29 0.27 0.21
0.02 0.04 0.12 0.07 0.09 0.07 0.05 0.08 0.12 0.09 0.04 0.01 0.03 0.07 0.14 0.20 0.14 0.12 0.18 0.26 0.44 0.58 0.45 0.42 0.38 0.45 0.42 0.41 0.39 0.32 0.17 0.07 0.07 0.06 0.04 0.02 0.00 0.00 0.00 0.01 0.01 0.03 0.05 0.06 0.02 0.02 0.04 0.06 0.10 0.13 0.41 0.32 0.17 0.37 0.27 0.38 0.25 0.24 0.11 0.09 0.13 0.20 0.19 0.15 0.15 0.14 0.15 0.14 0.12 0.11 0.09 0.05 0.02 0.00 0.00 0.01 0.03 0.09 0.12 0.14 0.14 0.08 0.07 0.11 0.19 0.21